Flag for Norway Weather past 2 weeks in Elverum, Norway

Now
56 °F

Cool.


Feels Like: 56 °F
Forecast: 53 / 74 °F
Wind: 2 mph from Southeast

Location: Haugedalshogda

Current Time: Jul 30, 2014 at 3:32:15 AM

Latest Report: Jul 30, 2014 at 2:00 AM


Visibility: N/A

Pressure: 29.73 "Hg

Humidity: 89%

Dew point: 53 °F

Location of ElverumLocation

Historic Weather in Elverum — Graph

°F

Elverum temperature yesterday

Maximum temperature yesterday: 80 °F (at 2:00 PM)
Minimum temperature yesterday: 56 °F (at 3:00 AM)
Average temperature yesterday: 68 °F

Past Weeks' High & Low Weather Summary

 TemperatureHumidityPressure
High88 °F (Jul 23, 5:00 PM)94% (Jul 16, 12:00 AM)30.39 "Hg (Jul 16, 12:00 AM)
Low44 °F (Jul 21, 4:00 AM)23% (Jul 24, 2:00 PM)29.69 "Hg (Jul 29, 9:00 PM)
Average66 °F69%30.07 "Hg
* Reported Jul 15 2:00 AM — Jul 30 2:00 AM, Elverum, Weather by CustomWeather, © 2014

Note: Actual official high and low records may vary slightly from our data, if they occured in-between our weather recording intervals... More about our weather records

Advertising

Elverum weather history for previous 24 hours

 ConditionsComfort  
Time TempWeatherWind HumidityBarometerVisibility
2:00 AM
Jul 30
56 °FCool.2 mph89%29.73 "HgN/A
1:00 AM58 °FCool.1 mph90%29.73 "HgN/A
12:00 AM61 °FCool.1 mph85%29.73 "HgN/A
11:00 PM
Jul 29
60 °FCool.1 mph87%29.73 "HgN/A
10:00 PM67 °FMild.No wind70%29.71 "HgN/A
9:00 PM75 °FMild.2 mph57%29.69 "HgN/A
8:00 PM77 °FWarm.1 mph46%29.70 "HgN/A
7:00 PM79 °FWarm.5 mph42%29.70 "HgN/A
6:00 PM78 °FWarm.5 mph42%29.72 "HgN/A
5:00 PM77 °FMild.6 mph49%29.74 "HgN/A
4:00 PM76 °FMild.5 mph49%29.76 "HgN/A
3:00 PM77 °FWarm.5 mph45%29.78 "HgN/A
2:00 PM80 °FWarm.1 mph41%29.80 "HgN/A
1:00 PM77 °FMild.1 mph44%29.82 "HgN/A
12:00 PM75 °FMild.1 mph44%29.84 "HgN/A
11:00 AM74 °FMild.1 mph54%29.85 "HgN/A
10:00 AM69 °FMild.1 mph66%29.88 "HgN/A
9:00 AM67 °FMild.1 mph71%29.89 "HgN/A
8:00 AM62 °FMild.1 mph81%29.91 "HgN/A
7:00 AM60 °FCool.1 mph92%29.92 "HgN/A
6:00 AM57 °FCool.1 mph92%29.92 "HgN/A
5:00 AM58 °FCool.1 mph93%29.93 "HgN/A
4:00 AM57 °FCool.No wind92%29.94 "HgN/A
3:00 AM56 °FCool.1 mph91%29.95 "HgN/A
Weather by CustomWeather, © 2014

See weather overviewHow to use our weather pages